User: anonymous   Login
Location: Unspecified
(0.0000°N, 0.0000°E)
Time: 03:05:10
(UTC+00:00)
Language:

ASTRA 1KR - Orbit

View from above orbital plane
View from above orbital plane
View from above satellite
View from above satellite

Ground track
Ground track

The orbit data is extracted from the following two-line orbital elements,

1 29055U 06012A   14356.28589497  .00000126  00000-0  00000+0 0  2161
2 29055 000.0514 285.0485 0003737 334.2046 313.6266 01.00271481 31721
Epoch (UTC): 22 December 2014 06:51:41
Eccentricity: 0.0003737
inclination: 0.0514°
perigee height: 35770 km
apogee height: 35802 km
right ascension of ascending node: 285.0485°
argument of perigee: 334.2046°
revolutions per day: 1.00271481
mean anomaly at epoch: 313.6266°
orbit number at epoch: 3172

The dashed part of the orbit path shows where the satellite is in the earth's shadow,  

DLR